Location: Boleita
(10.4833°N, 66.8167°W)
Time: 01:24:15
(UTC+00:00)

Cosmos 1371 Rocket - Pass Details

Date: 08 November 2025
Orbit: 749 x 785 km, 74.0° (Epoch: 08 December)

Event Time Altitude Azimuth Distance (km) Brightness Sun altitude
Rises 09:45:44 0° 196° (SSW) 3,200 7.2 -9.0°
Reaches altitude 10° 09:48:06 10° 198° (SSW) 2,280 6.4 -8.4°
Maximum altitude 09:53:15 73° 283° (WNW) 796 3.9 -7.2°
Drops below altitude 10° 09:58:28 10° 8° (N) 2,303 6.4 -6.0°
Sets 10:00:51 0° 10° (N) 3,234 7.2 -5.4°
